Manistique, MI

4:50 PM EST on January 17, 2017 (GMT -0500)
Schoolcraft County

Weather History for KISQ - July, 2013

Change the Weather History Date:

Sunday, July 21, 2013

  Actual Average Record
Temperature  
Mean Temperature 54 °F -  
Max Temperature 66 °F 75 °F 93 °F (1955)
Min Temperature 42 °F 55 °F 41 °F (1992)
Degree Days  
Heating Degree Days 11    
Growing Degree Days 4 (Base 50)    
Moisture  
Dew Point 49 °F    
Average Humidity 79    
Maximum Humidity 98    
Minimum Humidity 47    
Precipitation  
Precipitation 0.00 in - - ()
Sea Level Pressure  
Sea Level Pressure 30.02 in    
Wind  
Wind Speed 3 mph (WNW)    
Max Wind Speed 8 mph    
Max Gust Speed -    
Visibility 10 miles    
Events      
Averages and records for this station are not official NWS values.
T = Trace of Precipitation, MM = Missing Value Source: NWS Daily Summary

Daily Weather History Graph

Daily Weather History Graph

Search for Another Location

Airport or City:

Trip Planner

Search our weather history database for the weather conditions in past years. The results will help you decide how hot, cold, wet, or windy it might be!

Date:

Astronomy

Jul. 21, 2013 Rise Set
Actual Time 6:15 AM EDT 9:26 PM EDT
Civil Twilight 5:38 AM EDT 10:02 PM EDT
Nautical Twilight 4:52 AM EDT 10:49 PM EDT
Astronomical Twilight 3:54 AM EDT 11:46 PM EDT
Moon 8:21 PM EDT (7/21) 5:01 AM EDT (7/21)
Length of Visible Light 16h 23m
Length of Day
15h 11m
Waxing Gibbous, 98% of the Moon is Illuminated
Jul 21
Waxing Gibbous
Jul 22
Full
Jul 29
Last Quarter
Aug 6
New
Aug 14
First Quarter

Hourly Weather History & Observations

Time (EDT) Temp. Windchill Dew Point Humidity Pressure Visibility Wind Dir Wind Speed Gust Speed Precip Events Conditions
12:14 AM 46.9 °F - 44.6 °F 92% 30.04 in 10.0 mi Calm Calm - N/A   Clear
12:35 AM 47.3 °F - 44.8 °F 91% 30.04 in 10.0 mi North 3.5 mph - N/A   Clear
12:55 AM 44.6 °F 42.2 °F 43.3 °F 95% 30.03 in 10.0 mi NNW 4.6 mph - N/A   Clear
1:14 AM 45.5 °F 43.2 °F 44.1 °F 95% 30.03 in 10.0 mi NW 4.6 mph - N/A   Clear
1:35 AM 44.8 °F - 43.5 °F 95% 30.04 in 10.0 mi Calm Calm - N/A   Clear
1:55 AM 44.2 °F - 43.2 °F 96% 30.03 in 10.0 mi Calm Calm - N/A   Clear
2:15 AM 44.1 °F 42.5 °F 43.2 °F 97% 30.03 in 10.0 mi NW 3.5 mph - N/A   Clear
2:35 AM 44.1 °F 41.5 °F 43.5 °F 98% 30.03 in 10.0 mi NW 4.6 mph - N/A   Clear
2:54 AM 44.4 °F 41.2 °F 43.7 °F 97% 30.03 in 10.0 mi NNW 5.8 mph - N/A   Clear
3:15 AM 44.1 °F 41.5 °F 43.3 °F 97% 30.03 in 10.0 mi NNW 4.6 mph - N/A   Clear
3:35 AM 43.7 °F 40.3 °F 42.8 °F 97% 30.02 in 10.0 mi North 5.8 mph - N/A   Clear
3:54 AM 43.5 °F 40.9 °F 42.8 °F 97% 30.02 in 10.0 mi NNW 4.6 mph - N/A   Clear
4:15 AM 42.8 °F 40.1 °F 42.1 °F 97% 30.03 in 10.0 mi NNW 4.6 mph - N/A   Clear
4:35 AM 43.7 °F 41.1 °F 42.8 °F 97% 30.03 in 10.0 mi NNW 4.6 mph - N/A   Clear
4:54 AM 43.9 °F 41.3 °F 43.0 °F 97% 30.02 in 10.0 mi North 4.6 mph - N/A   Clear
5:15 AM 43.7 °F 41.1 °F 42.8 °F 97% 30.02 in 10.0 mi North 4.6 mph - N/A   Clear
5:35 AM 43.0 °F 41.3 °F 42.3 °F 97% 30.03 in 10.0 mi NNW 3.5 mph - N/A   Clear
5:55 AM 42.8 °F - 41.9 °F 97% 30.02 in 10.0 mi Calm Calm - N/A   Clear
6:15 AM 42.3 °F 39.4 °F 41.5 °F 97% 30.03 in 10.0 mi NNW 4.6 mph - N/A   Clear
6:34 AM 43.2 °F 41.5 °F 42.3 °F 97% 30.03 in 10.0 mi NNW 3.5 mph - N/A   Clear
6:55 AM 43.7 °F 42.1 °F 42.8 °F 97% 30.03 in 10.0 mi NNW 3.5 mph - N/A   Clear
7:15 AM 45.5 °F - 44.1 °F 95% 30.05 in 10.0 mi Calm Calm - N/A   Clear
7:34 AM 46.6 °F - 45.0 °F 94% 30.05 in 10.0 mi Calm Calm - N/A   Clear
7:55 AM 47.7 °F - 45.7 °F 93% 30.05 in 10.0 mi NW 3.5 mph - N/A   Clear
8:15 AM 49.5 °F - 47.1 °F 92% 30.06 in 10.0 mi NW 3.5 mph - N/A   Clear
8:34 AM 51.1 °F - 48.0 °F 89% 30.06 in 10.0 mi NNW 3.5 mph - N/A   Clear
8:55 AM 52.9 °F - 48.4 °F 85% 30.05 in 10.0 mi NNE 4.6 mph - N/A   Clear
9:14 AM 55.0 °F - 49.5 °F 81% 30.05 in 10.0 mi NNE 4.6 mph - N/A   Clear
9:35 AM 58.3 °F - 50.5 °F 75% 30.05 in 10.0 mi NE 3.5 mph - N/A   Clear
9:55 AM 60.4 °F - 51.8 °F 73% 30.05 in 10.0 mi ENE 4.6 mph - N/A   Clear
10:14 AM 61.3 °F - 52.2 °F 72% 30.06 in 10.0 mi Calm Calm - N/A   Clear
10:35 AM 63.3 °F - 52.2 °F 67% 30.05 in 10.0 mi SSE 3.5 mph - N/A   Clear
10:55 AM 63.3 °F - 51.4 °F 65% 30.05 in 10.0 mi SE 5.8 mph - N/A   Clear
11:14 AM 63.7 °F - 54.5 °F 72% 30.06 in 10.0 mi SSE 6.9 mph - N/A   Clear
11:35 AM 64.4 °F - 54.3 °F 70% 30.06 in 10.0 mi South 6.9 mph - N/A   Clear
11:54 AM 64.2 °F - 52.9 °F 67% 30.06 in 10.0 mi SSW 6.9 mph - N/A   Clear
12:15 PM 65.1 °F - 53.6 °F 66% 30.05 in 10.0 mi SE 6.9 mph - N/A   Clear
12:35 PM 66.0 °F - 54.1 °F 65% 30.04 in 10.0 mi South 6.9 mph - N/A   Clear
12:54 PM 66.2 °F - 53.8 °F 64% 30.04 in 10.0 mi SSW 6.9 mph - N/A   Scattered Clouds
1:15 PM 65.1 °F - 53.1 °F 65% 30.04 in 10.0 mi South 5.8 mph - N/A   Mostly Cloudy
1:35 PM 64.9 °F - 53.2 °F 66% 30.04 in 10.0 mi South 5.8 mph - N/A   Overcast
1:54 PM 64.0 °F - 54.3 °F 71% 30.04 in 10.0 mi SSW 8.1 mph - N/A   Overcast
2:15 PM 64.0 °F - 53.2 °F 68% 30.04 in 10.0 mi South 5.8 mph - N/A   Overcast
2:35 PM 64.6 °F - 53.8 °F 68% 30.03 in 10.0 mi SSW 5.8 mph - N/A   Overcast
2:55 PM 64.6 °F - 53.2 °F 67% 30.03 in 10.0 mi South 6.9 mph - N/A   Overcast
3:15 PM 62.6 °F - 53.1 °F 71% 30.03 in 10.0 mi SSW 5.8 mph - N/A   Overcast
3:34 PM 62.2 °F - 53.4 °F 73% 30.03 in 10.0 mi South 4.6 mph - N/A   Overcast
3:55 PM 62.6 °F - 53.2 °F 71% 30.02 in 10.0 mi South 5.8 mph - N/A   Overcast
4:15 PM 62.6 °F - 53.6 °F 72% 30.01 in 10.0 mi SSW 3.5 mph - N/A   Overcast
4:34 PM 62.6 °F - 53.6 °F 72% 30.01 in 10.0 mi South 4.6 mph - N/A   Overcast
4:55 PM 63.3 °F - 53.8 °F 71% 30.01 in 10.0 mi SSW 5.8 mph - N/A   Overcast
5:15 PM 63.5 °F - 54.0 °F 71% 30.00 in 10.0 mi SW 3.5 mph - N/A   Overcast
5:34 PM 63.5 °F - 54.1 °F 72% 29.99 in 10.0 mi Calm Calm - N/A   Overcast
5:55 PM 64.6 °F - 54.0 °F 68% 29.98 in 10.0 mi Calm Calm - N/A   Overcast
6:14 PM 64.4 °F - 53.2 °F 67% 29.97 in 10.0 mi Calm Calm - N/A   Overcast
6:35 PM 65.3 °F - 48.9 °F 55% 29.97 in 10.0 mi Calm Calm - N/A   Overcast
6:55 PM 65.5 °F - 52.2 °F 62% 29.96 in 10.0 mi Calm Calm - N/A   Mostly Cloudy
7:14 PM 65.5 °F - 50.9 °F 59% 29.96 in 10.0 mi Calm Calm - N/A   Overcast
7:35 PM 66.2 °F - 46.8 °F 50% 29.96 in 10.0 mi Calm Calm - N/A   Overcast
7:55 PM 65.8 °F - 44.8 °F 47% 29.97 in 10.0 mi Calm Calm - N/A   Overcast
8:14 PM 64.8 °F - 49.6 °F 58% 29.97 in 10.0 mi Calm Calm - N/A   Overcast
8:35 PM 63.9 °F - 49.6 °F 60% 29.96 in 10.0 mi Calm Calm - N/A   Overcast
8:55 PM 63.5 °F - 52.0 °F 66% 29.97 in 10.0 mi Calm Calm - N/A   Overcast
9:14 PM 62.8 °F - 52.7 °F 70% 29.97 in 10.0 mi Calm Calm - N/A   Overcast
9:35 PM 61.9 °F - 53.6 °F 74% 29.96 in 10.0 mi Calm Calm - N/A   Overcast
9:54 PM 61.7 °F - 54.0 °F 76% 29.95 in 10.0 mi Calm Calm - N/A   Overcast
10:15 PM 61.0 °F - 54.9 °F 80% 29.95 in 10.0 mi East 3.5 mph - N/A   Overcast
10:34 PM 61.2 °F - 54.1 °F 78% 29.95 in 10.0 mi East 3.5 mph - N/A   Overcast
10:55 PM 60.4 °F - 55.4 °F 83% 29.95 in 10.0 mi East 4.6 mph - N/A   Mostly Cloudy
11:15 PM 61.2 °F - 55.8 °F 82% 29.95 in 10.0 mi Calm Calm - N/A   Mostly Cloudy
11:34 PM 60.1 °F - 56.1 °F 87% 29.94 in 10.0 mi Calm Calm - N/A   Mostly Cloudy
11:55 PM 57.7 °F - 55.0 °F 91% 29.93 in 10.0 mi Calm Calm - N/A   Mostly Cloudy